[[{"header":{"parameterUnit":"m.s-1","parameterCategory":1,"la1":30.2992,"la2":30.254,"lo1":-89.0895,"lo2":-89.0443,"dy":0.0025,"dx":0.0025,"nx":19,"ny":19,"refTime":"2026-03-21T21:00:00:Z","depth":0,"parameterNumber":2,"parameterNumberName":"U-component_of_WINDS"},"data":[0,0,0,4.4651,4.4656,4.4857,4.4858,4.5138,4.514,0,0,0,0,0,0,0,0,0,0,0,4.4603,4.4605,4.4651,4.4656,4.4857,4.4858,4.5137,4.514,0,0,0,0,0,0,0,0,0,0,0,4.4602,4.4605,4.4607,4.4657,4.4857,4.4858,4.5136,4.4977,0,0,0,0,0,0,0,0,0,0,4.4778,4.4744,4.4604,4.4607,4.4658,4.4857,4.4858,4.4969,4.4987,4.5055,0,4.5117,0,4.5133,4.516,4.5161,0,0,0,4.4649,4.4729,4.4773,4.4608,4.466,4.4857,4.4764,4.4979,4.4999,4.5079,4.512,4.513,4.5137,4.5162,4.5164,4.5574,4.5576,0,0,4.4637,4.4646,4.4759,4.4787,4.4754,4.4758,4.4771,4.4991,4.5038,4.5121,4.5136,4.5142,4.5164,4.5166,4.5572,4.5575,0,0,0,4.4611,4.4639,4.4676,4.4776,4.481,4.4764,4.4779,4.5028,4.5039,4.5139,4.5145,4.5166,4.5169,4.557,4.5573,4.5691,0,0,0,4.4604,4.4623,4.4672,4.4679,4.4806,4.4921,4.4811,4.5024,4.5048,4.5144,4.5166,4.5172,4.5567,4.5571,4.5683,4.5746,0,0,0,4.4586,4.4621,4.4653,4.4679,4.4766,4.4917,4.4941,4.5029,4.5053,4.5161,4.5173,4.5565,4.5571,4.5675,4.5734,4.5855,0,0,0,4.457,4.4758,4.4655,4.4868,4.4764,4.4989,4.4939,4.5107,4.5215,4.5167,4.5567,4.5573,4.5673,4.5726,4.5847,4.5957,4.6005,0,0,4.4812,4.4788,4.4912,4.4826,4.507,4.4957,4.522,4.5312,4.5317,4.5489,4.5499,4.5686,4.5733,4.5853,4.6269,4.6306,0,0,0,4.4991,4.5081,4.5144,4.5244,4.5317,4.5385,4.5435,4.5469,4.5614,4.5406,4.5763,4.5791,4.5861,4.5914,4.5946,4.6005,4.5598,4.5597,4.5597,4.5346,4.5338,4.5543,4.556,4.5659,4.5708,4.5788,4.5842,4.5808,4.5893,4.5943,4.6196,4.6258,4.6282,4.6344,4.6003,4.6003,4.6004,4.6004,4.5698,4.5822,4.577,4.595,4.5942,4.6094,4.6149,4.6119,4.626,4.6158,4.622,4.6107,4.6323,4.6377,4.6013,4.6011,4.601,4.6009,4.6009,4.5928,4.5986,4.6022,4.6166,4.6279,4.6291,4.6427,4.6416,4.6407,4.6468,4.6519,4.6517,4.6512,4.6493,4.6494,4.6495,4.6496,4.6497,4.6497,4.6151,4.6188,4.6303,4.6395,4.6458,4.6539,4.659,4.6652,4.6718,4.6699,4.6699,4.6656,4.6346,4.6267,4.6511,4.6508,4.6507,4.6505,4.6504,4.6508,4.6425,4.6602,4.6665,4.6771,4.6883,4.6867,4.6994,4.7044,4.7112,4.7056,4.6828,4.6803,4.6778,4.6712,4.7057,4.7057,4.7057,4.7057,4.67,4.6686,4.6863,4.6964,4.7061,4.7064,4.7266,4.7308,4.7338,4.7369,4.7318,4.723,4.7205,4.7195,4.716,4.7099,4.7535,4.7535,4.7535,4.6918,4.6912,4.7085,4.7111,4.7194,4.7265,4.7454,4.7572,4.759,4.7554,4.7392,4.7372,4.7231,4.7185,4.7145,4.7092,4.6979,0,0]},{"header":{"parameterUnit":"m.s-1","parameterCategory":1,"la1":30.2992,"la2":30.254,"lo1":-89.0895,"lo2":-89.0443,"dy":0.0025,"dx":0.0025,"nx":19,"ny":19,"refTime":"2026-03-21T21:00:00:Z","depth":0,"parameterNumber":3,"parameterNumberName":"V-component_of_WINDS"},"data":[0,0,0,3.7841,3.7845,3.8049,3.8049,3.8312,3.8314,0,0,0,0,0,0,0,0,0,0,0,3.7781,3.7783,3.784,3.7845,3.8048,3.8049,3.8312,3.8314,0,0,0,0,0,0,0,0,0,0,0,3.778,3.7782,3.7784,3.7846,3.8048,3.8049,3.8311,3.8157,0,0,0,0,0,0,0,0,0,0,3.7959,3.7904,3.7782,3.7785,3.7847,3.8048,3.805,3.8149,3.8167,3.8221,0,3.8268,0,3.8295,3.8332,3.8333,0,0,0,3.7845,3.789,3.7944,3.7785,3.7849,3.8048,3.7957,3.8159,3.8178,3.8243,3.8272,3.8282,3.83,3.8334,3.8335,3.8645,3.8647,0,0,3.7834,3.7818,3.7931,3.7957,3.7924,3.795,3.7963,3.8171,3.8201,3.8273,3.8288,3.8304,3.8336,3.8338,3.8644,3.8646,0,0,0,3.7802,3.781,3.7859,3.7946,3.7982,3.7956,3.7971,3.8192,3.8209,3.8291,3.8307,3.8337,3.834,3.8643,3.8645,3.8702,0,0,0,3.7795,3.7792,3.7854,3.7847,3.7979,3.809,3.7988,3.8195,3.8219,3.8306,3.8337,3.8343,3.8641,3.8644,3.8697,3.8732,0,0,0,3.7768,3.7788,3.7818,3.7846,3.7932,3.8087,3.8116,3.82,3.8229,3.8333,3.8344,3.864,3.8643,3.8692,3.8725,3.881,0,0,0,3.7734,3.7866,3.7819,3.7973,3.7931,3.812,3.8115,3.8256,3.8352,3.8338,3.8641,3.8645,3.8691,3.872,3.8805,3.8879,3.8908,0,0,3.7892,3.7885,3.7977,3.794,3.8133,3.809,3.8292,3.8396,3.842,3.8569,3.8577,3.8698,3.8724,3.8808,3.9074,3.9097,0,0,0,3.8022,3.8087,3.8142,3.8232,3.8313,3.8386,3.846,3.8498,3.8625,3.8493,3.8752,3.8768,3.8818,3.8854,3.8874,3.8918,3.866,3.866,3.8659,3.8224,3.8247,3.8401,3.8449,3.8537,3.8611,3.8684,3.8748,3.8747,3.8808,3.8853,3.9011,3.9053,3.9067,3.9113,3.8893,3.8893,3.8893,3.8893,3.8459,3.8556,3.855,3.8697,3.8721,3.8845,3.8922,3.8916,3.9036,3.8979,3.9024,3.8961,3.9092,3.9133,3.8898,3.8897,3.8896,3.8896,3.8896,3.8595,3.8646,3.8689,3.8822,3.8921,3.8965,3.908,3.9098,3.9115,3.916,3.921,3.9209,3.9211,3.9182,3.9183,3.9183,3.9184,3.9184,3.9184,3.872,3.8767,3.8861,3.8958,3.9018,3.9099,3.9174,3.9234,3.9305,3.9309,3.931,3.9303,3.91,3.9049,3.9193,3.9192,3.9191,3.919,3.9189,3.8952,3.8902,3.9047,3.9108,3.9222,3.932,3.9341,3.9461,3.9513,3.9569,3.9552,3.9399,3.9393,3.9377,3.9336,3.9546,3.9546,3.9546,3.9546,3.9068,3.9066,3.9218,3.9313,3.9408,3.9441,3.9606,3.9665,3.9719,3.9753,3.9725,3.967,3.9653,3.9658,3.9636,3.9598,3.987,3.987,3.987,3.9212,3.922,3.9356,3.9407,3.9498,3.9576,3.9731,3.9841,3.9892,3.9884,3.978,3.9766,3.9678,3.9648,3.964,3.9606,3.9536,0,0]}]]